Weather History for Jaffrey, NH

Change the Weather History Date:

Monday, February 18, 2013

  Actual Average Record
Temperature  
Mean Temperature 16 °F -  
Max Temperature 25 °F 32 °F 57 °F (2011)
Min Temperature 7 °F 13 °F -7 °F (2014)
Degree Days  
Heating Degree Days 49    
Moisture  
Dew Point -4 °F    
Average Humidity 43    
Maximum Humidity 58    
Minimum Humidity 24    
Precipitation  
Precipitation 0.00 in - - ()
Sea Level Pressure  
Sea Level Pressure 30.00 in    
Wind  
Wind Speed 11 mph (West)    
Max Wind Speed 22 mph    
Max Gust Speed 31 mph    
Visibility 10 miles    
Events      
Averages and records for this station are not official NWS values.
T = Trace of Precipitation, MM = Missing Value Source: NWS Daily Summary

Daily Weather History Graph

Daily Weather History Graph

Search for Another Location

Airport:

Trip Planner

Search our weather history database for the weather conditions in past years. The results will help you decide how hot, cold, wet, or windy it might be!

Date:

Astronomy

Feb. 18, 2013 Rise Set
Actual Time 6:40 AM EST 5:23 PM EST
Civil Twilight 6:11 AM EST 5:52 PM EST
Nautical Twilight 5:38 AM EST 6:25 PM EST
Astronomical Twilight 5:06 AM EST 6:58 PM EST
Moon 11:03 AM EST (2/18) 1:21 AM EST (2/18)
Length of Visible Light 11h 41m
Length of Day
10h 43m
First Quarter, 58% of the Moon is Illuminated
Feb 18
First Quarter
Feb 25
Full
Mar 4
Last Quarter
Mar 11
New
Mar 19
First Quarter

Hourly Weather History & Observations

Time (EST) Temp. Windchill Dew Point Humidity Pressure Visibility Wind Dir Wind Speed Gust Speed Precip Events Conditions
12:52 AM 9.0 °F -4.2 °F -4.0 °F 56% 29.75 in 10.0 mi WNW 9.2 mph 23.0 mph N/A   Overcast
1:52 AM 9.0 °F -9.0 °F -4.0 °F 56% 29.78 in 10.0 mi WNW 17.3 mph 29.9 mph N/A   Overcast
2:52 AM 8.1 °F -12.2 °F -4.0 °F 58% 29.80 in 10.0 mi West 21.9 mph 31.1 mph N/A   Scattered Clouds
3:52 AM 8.1 °F -10.7 °F -4.0 °F 58% 29.83 in 10.0 mi West 18.4 mph 29.9 mph N/A   Clear
5:52 AM 7.0 °F -9.8 °F -5.1 °F 58% 29.90 in 10.0 mi West 13.8 mph 20.7 mph N/A   Clear
6:52 AM 7.0 °F -5.7 °F -5.1 °F 58% 29.94 in 10.0 mi West 8.1 mph 20.7 mph N/A   Clear
7:52 AM 8.1 °F -2.0 °F -4.0 °F 58% 29.98 in 10.0 mi Variable 5.8 mph - N/A   Clear
9:52 AM 15.1 °F 3.3 °F -2.9 °F 45% 30.02 in 10.0 mi West 9.2 mph 20.7 mph N/A   Clear
10:52 AM 19.0 °F 10.0 °F -5.1 °F 34% 30.02 in 10.0 mi West 6.9 mph 18.4 mph N/A   Clear
11:52 AM 19.9 °F 12.1 °F -4.0 °F 35% 30.03 in 10.0 mi Variable 5.8 mph 18.4 mph N/A   Clear
12:52 PM 21.0 °F 8.1 °F -5.1 °F 32% 30.04 in 10.0 mi WNW 13.8 mph 21.9 mph N/A   Clear
1:52 PM 21.9 °F 8.7 °F -6.0 °F 29% 30.04 in 10.0 mi West 15.0 mph 25.3 mph N/A   Clear
2:52 PM 24.1 °F 12.5 °F -6.0 °F 27% 30.04 in 10.0 mi West 12.7 mph 20.7 mph N/A   Clear
3:52 PM 25.0 °F 15.5 °F -7.1 °F 24% 30.06 in 10.0 mi WNW 9.2 mph 21.9 mph N/A   Clear
4:52 PM 25.0 °F 15.5 °F -7.1 °F 24% 30.08 in 10.0 mi West 9.2 mph 18.4 mph N/A   Clear
5:52 PM 24.1 °F 16.0 °F -8.0 °F 24% 30.10 in 10.0 mi Variable 6.9 mph - N/A   Clear
6:52 PM 23.0 °F 12.4 °F -5.1 °F 29% 30.11 in 10.0 mi WNW 10.4 mph 21.9 mph N/A   Clear
8:52 PM 15.1 °F 5.2 °F -0.0 °F 51% 30.14 in 10.0 mi South 6.9 mph - N/A   Clear
9:52 PM 19.0 °F 10.0 °F -0.9 °F 42% 30.14 in 10.0 mi SW 6.9 mph - N/A   Clear
10:52 PM 18.0 °F 9.8 °F -0.9 °F 44% 30.15 in 10.0 mi WSW 5.8 mph - N/A   Clear
11:52 PM 15.1 °F 6.4 °F -0.0 °F 51% 30.15 in 10.0 mi SSW 5.8 mph - N/A   Clear